sat.trackr.live / text

‹ back to catalog

STARLINK-37479

NORAD 68861 · 2026-094Y

PAYLOAD ACTIVE UNKNOWN

§ Identity

Operator
Country
US
Launch date
2026-04-26
Launch site
AFWTR
Launch vehicle
Mass (kg)
RCS (m²)

Purposes: comms

External: N2YO · Heavens-Above · Gunter

§ Orbital elements

Epoch: 2026-09-19T23:36:23.072832Z

Period
93.91 min
Inclination
97.2842°
Eccentricity
0.0001446
Mean motion
15.33454647 rev/d
Perigee alt
464.5 km
Apogee alt
466.5 km
Semi-major
6,843.7 km
B*
4.3302e-4
RAAN
276.1922°
Arg perigee
90.5714°
Mean anomaly
269.5695°
Rev number
2,258

§ Raw data

STARLINK-374791 68861U 26094Y   26262.98360038  .00013935  00000+0  43302-3 0  99902 68861  97.2842 276.1922 0001446  90.5714 269.5695 15.33454647 22584

JSON: /api/v1/satellites/68861 · /tle

For live sub-satellite position, see the globe view (requires WebGL).

§ Visibility from observer

Set your observer location to see the next 7 days of passes ≥ 10°. The values pass through the URL so the page stays shareable.

No JS? Fill the form by hand. The geolocation button needs JavaScript.